Back to catalog

CZ-6A DEB

AliveSSO
NORAD 60213·DEBRIS·🇨🇳 China

Launched Jul 4, 2024 from Taiyuan Satellite Launch Center

Loading…

Next Passes (next 24 hours)

TLE

FreshSource: Space-Track

Epoch: Sep 14, 2026, 01:08 UTC

1 60213U 24126C   26257.04756108  .00009964  00000-0  56959-3 0  9995
2 60213  97.8156 280.2856 0004058   0.8008 359.3228 15.12892555120170

Track CZ-6A DEB in real time with AllMySat

Download on the App Store